• Join FlightAware (Why Join?)
  • Login
  • US Flag 
11:17PM EST


 

Airport Tracker/Info


-or-


 

Live Flight TrackerFlight Track Log ✈ DAL3895 ✈ 22-Sep-2013 ✈ KPHL - KCVG

Flight Track Log - Related Links

Times and Time Zones

All times are in EDT time to prevent confusion due to time zone crossing. See the DAL3895 flight status page for this flight to view local times or setup timezone preferences in your user account.

Time Position Orientation Groundspeed Altitude Reporting Facility
EDT Latitude Longitude Course Direction KTS MPH feet Rate Location/Type
11:30AM 39.8667 -75.2833 218° Southwest 173 199 900  Level Philadelphia TRACON
11:31AM 39.8500 -75.3000 218° Southwest 166 191 1,600 2,071 Climbing Philadelphia TRACON
11:32AM 39.8333 -75.3833 255° West 218 251 3,800 2,421 Climbing Philadelphia TRACON
11:33AM 39.8167 -75.4500 252° West 255 293 6,200 2,713 Climbing Philadelphia TRACON
11:34AM 39.8333 -75.5500 282° West 260 299 9,000 1,732 Climbing Philadelphia TRACON
11:35AM 39.8436 -75.6997 275° West 296 341 10,500 1,095 Climbing New York Center
11:36AM 39.8575 -75.8197 279° West 324 373 11,700 1,250 Climbing New York Center
11:37AM 39.8792 -75.9431 283° West 337 388 13,000 1,300 Climbing New York Center
11:38AM 39.8925 -76.0686 278° West 355 409 14,300 1,300 Climbing New York Center
11:39AM 39.9072 -76.1997 278° West 362 417 15,600 1,200 Climbing New York Center
11:40AM 39.9122 -76.3192 273° West 367 422 16,700 1,050 Climbing New York Center
11:41AM 39.9181 -76.4550 273° West 372 428 17,700 1,100 Climbing New York Center
11:42AM 39.9256 -76.6044 274° West 377 434 18,900 1,050 Climbing New York Center
11:43AM 39.9164 -76.7417 265° West 387 445 19,800 900 Climbing New York Center
11:44AM 39.8603 -76.8614 239° Southwest 375 432 20,700 807 Climbing New York Center
11:46AM 39.7567 -77.0706 237° Southwest 397 457 22,100 852 Climbing Washington Center
11:47AM 39.6989 -77.1908 238° Southwest 403 464 23,100 814 Climbing Washington Center
11:48AM 39.6431 -77.3108 239° Southwest 409 471 23,700 600 Climbing Washington Center
11:49AM 39.5850 -77.4333 238° Southwest 409 471 24,300 541 Climbing Washington Center
11:50AM 39.5247 -77.5528 237° Southwest 409 471 24,800 492 Climbing Washington Center
11:51AM 39.4686 -77.6778 240° Southwest 409 471 25,300 610 Climbing Washington Center
11:52AM 39.4100 -77.7994 238° Southwest 409 471 26,000 814 Climbing Washington Center
11:53AM 39.3556 -77.9214 240° Southwest 404 465 26,900 793 Climbing Washington Center
11:54AM 39.3094 -78.0406 243° Southwest 389 448 27,600 541 Climbing Washington Center
11:55AM 39.2611 -78.1650 243° Southwest 389 448 28,000 198 Climbing Washington Center
11:56AM 39.2103 -78.2917 243° Southwest 389 448 28,000  Level Washington Center
11:57AM 39.1575 -78.4208 242° Southwest 396 456 28,000  Level Washington Center
11:58AM 39.1064 -78.5475 243° Southwest 401 461 28,000  Level Washington Center
11:59AM 39.0531 -78.6789 242° Southwest 406 467 28,000  Level Washington Center
12:00PM 38.9997 -78.8103 242° Southwest 411 473 28,000  Level Washington Center
12:01PM 38.9664 -78.9531 253° West 416 479 28,000  Level Washington Center
12:02PM 38.9497 -79.0989 262° West 416 479 28,000  Level Washington Center
12:03PM 38.9328 -79.2475 262° West 416 479 28,000  Level Washington Center
12:04PM 38.9117 -79.3961 260° West 422 486 28,000  Level Washington Center
12:05PM 38.8944 -79.5392 261° West 422 486 28,000  Level Washington Center
12:06PM 38.8767 -79.6956 262° West 435 501 28,000  Level Washington Center
12:07PM 38.8564 -79.8569 261° West 435 501 28,000  Level Washington Center
12:08PM 38.8322 -80.0236 260° West 417 480 28,000  Level Indianapolis Center
12:09PM 38.8169 -80.1678 262° West 418 481 28,000  Level Indianapolis Center
12:10PM 38.8108 -80.3411 267° West 419 482 28,000  Level Indianapolis Center
12:11PM 38.7919 -80.4847 260° West 419 482 28,000  Level Indianapolis Center
12:12PM 38.7731 -80.6267 260° West 418 481 28,000  Level Indianapolis Center
12:13PM 38.7542 -80.7703 260° West 419 482 28,000  Level Indianapolis Center
12:14PM 38.7317 -80.9433 261° West 422 486 28,000  Level Indianapolis Center
12:15PM 38.7119 -81.0856 260° West 421 484 28,000  Level Indianapolis Center
12:16PM 38.6919 -81.2467 261° West 424 488 28,000  Level Indianapolis Center
12:17PM 38.6706 -81.3956 260° West 426 490 28,000  Level Indianapolis Center
12:18PM 38.6497 -81.5436 260° West 425 489 28,000  Level Indianapolis Center
12:20PM 38.6286 -81.6928 260° West 427 491 28,000  Level Indianapolis Center
12:21PM 38.6047 -81.8675 260° West 429 494 28,000 -293 Level Indianapolis Center
12:22PM 38.5825 -82.0156 259° West 425 489 27,400 -732 Descending Indianapolis Center
12:23PM 38.5614 -82.1639 260° West 426 490 26,500 -919 Descending Indianapolis Center
12:24PM 38.5403 -82.3114 260° West 422 486 25,500 -968 Descending Indianapolis Center
12:25PM 38.5197 -82.4569 260° West 419 482 24,500 -726 Descending Indianapolis Center
12:26PM 38.4983 -82.6003 259° West 414 476 24,000 -341 Descending Indianapolis Center
12:27PM 38.4731 -82.7658 259° West 409 471 23,800 -585 Descending Indianapolis Center
12:28PM 38.4508 -82.9067 259° West 407 468 22,800 -968 Descending Indianapolis Center
12:29PM 38.4342 -83.0497 262° West 410 472 21,800 -968 Descending Indianapolis Center
12:30PM 38.4622 -83.1839 285° West 398 458 20,800 -1,161 Descending Indianapolis Center
12:31PM 38.4897 -83.3178 285° West 392 451 19,400 -1,707 Descending Indianapolis Center
12:32PM 38.5169 -83.4486 285° West 388 447 17,300 -2,098 Descending Indianapolis Center
12:33PM 38.5458 -83.5942 284° West 374 430 15,100 -2,032 Descending Indianapolis Center
12:34PM 38.5711 -83.7142 285° West 361 415 13,100 -1,887 Descending Indianapolis Center
12:35PM 38.5958 -83.8367 285° West 357 411 11,200 -1,500 Descending Indianapolis Center
12:36PM 38.6242 -83.9561 287° West 353 406 10,000 -581 Descending Indianapolis Center
12:37PM 38.6756 -84.0525 304° West 332 382 10,000 -581 Level Indianapolis Center
12:38PM 38.6933 -84.1469 284° West 285 328 8,800 -968 Descending Indianapolis Center
12:39PM 38.7117 -84.2422 284° West 276 318 8,000 -390 Descending Indianapolis Center
12:40PM 38.7275 -84.3369 282° West 274 315 8,000 -927 Level Indianapolis Center
12:41PM 38.7486 -84.4497 284° West 272 313 6,100 -1,016 Descending Indianapolis Center
12:42PM 38.7736 -84.5300 292° West 249 287 5,900 -532 Descending Indianapolis Center
12:43PM 38.8172 -84.5800 318° Northwest 244 281 5,000 -845 Descending Indianapolis Center
12:45PM 38.8833 -84.6500 321° Northwest 171 197 3,900 -857 Descending Cincinnati TRACON
12:46PM 38.9333 -84.6667 345° North 167 192 3,000 -850 Descending Cincinnati TRACON
12:47PM 38.9667 -84.6667 360° North 165 190 2,200 -800 Descending Cincinnati TRACON
12:48PM 39.0167 -84.6667 360° North 138 159 1,400 -800 Descending Cincinnati TRACON
12:50PM 39.0488 -84.6678 North  Level Estimated
12:57PM 39.0488 -84.6678 195° South  Level Estimated